Find Starlink 32270

NORAD ID: 60364 Int'l Des: 2024-138 Owner: SPXS Country: US Constellation: starlink operational
LEOCIRCULAR

現在のビュー

3D地球を読み込み中...

About Starlink 32270

Starlink 32270 (NORAD 60364) is a starlink constellation satellite (v2 mini) launched Aug 4, 2024 by SPXS of US. It operates in LEO, CIRCULAR orbit with a mass of 730.00 kg.

次回通過

Passes for default location (London). Set your location on the main map for personalized predictions.

高度履歴

Loading altitude history...

軌道要素

1 60364U 24138K 26221.96847228 -.00000063 00000-0 97479-5 0 9997
2 60364 53.1610 317.0523 0001457 56.2516 303.8625 15.31712713114004
Epoch: Aug 9, 2026 • Age: 12 hours

現在のステータス

高度 477.3 km
遠地点 / 近地点 N/A
速度 7.63 km/s
衛星直下点 -23.37°S, 162.26°E
打ち上げ日 Aug 4, 2024
運用期間 2 years
タイプ internet

技術仕様

分類 Payload
質量 730.00 kg
乾燥質量 700.00 kg
総質量 730.00 kg
長さ 0.30 m
直径 4.10 m
スパン 29.00 m
形状 Box + pan
製造者 SPXS
バスタイプ Starlink V2M
フェーズステータス In Orbit
所有者/国 SPXS/US

Most Searched